Retour au catalogue

STARLINK-34828

ActifCommunicationsVLEO
NORAD 65353·PAYLOAD·🇺🇸 United States

Lancé Aug 28, 2025 depuis Cape Canaveral Space Force Station

Loading…

Prochains Passages (prochaines 24 heures)

TLE

FraisSource: CelesTrak SupGP

Époque: Sep 14, 2026, 20:50 UTC

1 65353C 25190C   26257.86854167  .00025444  00000+0  75193-3 0  2579
2 65353  53.1608   8.2733 0001189  76.5654  13.0247 15.34370781    19

Suivez STARLINK-34828 en temps réel avec AllMySat

Download on the App Store